Willis Island Observation History
Time Wind Speed Temp Pressure Rel. Hum Rain
30/09:00am ESE 25-29 kts 28.7°c 1011.3 hPa 71% 7.2mm
30/08:30am ESE 24-29 kts 28.1°c 1011.2 hPa 74% 7.2mm
30/08:00am ESE 26-30 kts 28.5°c 1010.9 hPa 76% 7.2mm
30/07:30am ESE 23-27 kts 28.1°c 1010.5 hPa 79% 7.2mm
30/07:00am SE 21-26 kts 26.8°c 1010.1 hPa 85% 7.2mm
30/06:30am ESE 21-26 kts 27.6°c 1009.6 hPa 81% 7.2mm
30/06:00am ESE 20-23 kts 27.4°c 1009.3 hPa 84% 7.2mm
30/05:30am ESE 19-23 kts 26.4°c 1008.9 hPa 87% 7.2mm
30/05:00am ESE 25-32 kts 26.7°c 1008.6 hPa 84% 7.2mm
30/04:54am ESE 21-32 kts 26.9°c 1008.6 hPa 83% 7.2mm
30/04:30am ESE 21-24 kts 27.3°c 1008.5 hPa 85% 7.2mm
30/04:00am ESE 20-23 kts 26.9°c 1008.8 hPa 86% 7.2mm
30/03:30am E 24-30 kts 26.6°c 1008.7 hPa 86% 7.2mm
30/03:29am E 24-30 kts 26.3°c 1008.7 hPa 84% 7.2mm
30/03:00am ESE 21-24 kts 27.5°c 1008.8 hPa 83% 7.2mm
30/02:30am ESE 21-24 kts 27.6°c 1008.9 hPa 84% 7.2mm
30/02:00am ESE 19-22 kts 27.3°c 1009.0 hPa 85% 7.2mm
30/01:30am ESE 19-23 kts 27.0°c 1009.4 hPa 84% 7.2mm
30/01:00am ESE 20-24 kts 27.5°c 1009.7 hPa 84% 7.2mm
30/12:30am ESE 19-22 kts 27.3°c 1009.8 hPa 83% 7.2mm
30/12:00am SE 20-22 kts 27.5°c 1010.3 hPa 85% 7.2mm
Time Wind Speed Temp Pressure Rel. Hum Rain
29/11:30pm SE 20-24 kts 27.5°c 1010.4 hPa 85% 7.2mm
29/11:00pm SE 21-24 kts 27.3°c 1011.0 hPa 85% 7.2mm
29/10:30pm ESE 19-23 kts 27.1°c 1011.0 hPa 85% 7.2mm
29/10:00pm SE 19-23 kts 26.5°c 1011.1 hPa 86% 7.2mm
29/09:30pm SE 21-24 kts 26.3°c 1011.2 hPa 86% 7.2mm
29/09:00pm SE 22-26 kts 26.2°c 1011.3 hPa 86% 7.2mm
29/08:30pm SE 24-27 kts 26.8°c 1011.1 hPa 85% 7.2mm
29/08:00pm ESE 22-25 kts 27.1°c 1010.7 hPa 85% 7.2mm
29/07:30pm SE 21-24 kts 27.3°c 1010.3 hPa 84% 7.2mm
29/07:00pm ESE 18-22 kts 27.1°c 1010.0 hPa 86% 7.2mm
29/06:38pm ESE 20-24 kts 26.8°c 1009.9 hPa 86% 7.2mm
29/06:30pm SE 20-23 kts 27.2°c 1009.8 hPa 86% 7.2mm
29/06:00pm SE 18-21 kts 27.3°c 1009.3 hPa 84% 7.2mm
29/05:30pm ESE 19-22 kts 27.2°c 1009.0 hPa 85% 7.2mm
29/05:00pm SE 18-22 kts 26.6°c 1008.7 hPa 89% 7.2mm
29/04:30pm ESE 19-23 kts 25.5°c 1008.6 hPa 90% 7.2mm
29/04:00pm ESE 23-27 kts 26.0°c 1008.6 hPa 87% 1.6mm
29/03:50pm ESE 20-25 kts 27.4°c 1008.3 hPa 78% 0.0mm
29/03:30pm SE 19-21 kts 29.1°c 1008.3 hPa 75% 0.0mm
29/03:00pm SE 21-24 kts 29.1°c 1008.2 hPa 73% 0.0mm
29/02:30pm SE 21-25 kts 28.5°c 1008.3 hPa 73% 0.0mm
29/02:00pm ESE 18-21 kts 30.0°c 1008.3 hPa 71% 0.0mm
29/01:30pm SE 19-22 kts 29.8°c 1008.6 hPa 73% 0.0mm
29/01:00pm ESE 19-22 kts 29.8°c 1009.1 hPa 71% 0.0mm
29/12:30pm ESE 21-24 kts 29.9°c 1009.6 hPa 73% 0.0mm
29/12:00pm ESE 21-24 kts 29.3°c 1009.8 hPa 75% 0.0mm
29/11:30am ESE 21-24 kts 28.8°c 1010.0 hPa 79% 0.0mm
29/11:00am ESE 21-25 kts 28.6°c 1010.4 hPa 78% 0.0mm
29/10:30am ESE 22-26 kts 28.2°c 1010.7 hPa 77% 0.0mm
29/10:00am ESE 22-25 kts 29.0°c 1010.9 hPa 75% 0.0mm
29/09:30am ESE 22-25 kts 28.5°c 1011.0 hPa 80% 0.0mm
29/09:00am ESE 22-25 kts 28.0°c 1011.0 hPa 80% 1.0mm
29/08:30am ESE 21-24 kts 27.8°c 1010.7 hPa 81% 1.0mm
29/08:00am ESE 23-26 kts 27.9°c 1010.4 hPa 82% 1.0mm
29/07:30am ESE 23-26 kts 27.5°c 1010.0 hPa 84% 1.0mm
29/07:00am ESE 20-23 kts 27.4°c 1009.7 hPa 86% 1.0mm
29/06:49am SE 21-31 kts 26.6°c 1009.6 hPa 86% 1.0mm
29/06:30am SE 19-22 kts 27.8°c 1009.3 hPa 83% 0.0mm
29/06:00am SE 19-22 kts 27.6°c 1008.9 hPa 83% 0.0mm
29/05:30am SE 20-22 kts 27.7°c 1008.7 hPa 83% 0.0mm
29/05:00am ESE 20-23 kts 27.6°c 1008.3 hPa 82% 0.0mm
29/04:30am SE 19-23 kts 27.7°c 1007.9 hPa 83% 0.0mm
29/04:00am SE 20-23 kts 27.8°c 1007.7 hPa 83% 0.0mm
29/03:30am SE 19-22 kts 27.7°c 1007.8 hPa 82% 0.0mm
29/03:00am SE 19-23 kts 27.7°c 1007.9 hPa 82% 0.0mm
29/02:30am SE 18-21 kts 27.5°c 1008.3 hPa 82% 0.0mm
29/02:00am SE 17-19 kts 27.6°c 1008.8 hPa 82% 0.0mm
29/01:30am ESE 17-19 kts 27.4°c 1009.3 hPa 80% 0.0mm
29/01:00am ESE 17-19 kts 27.6°c 1009.7 hPa 81% 0.0mm
29/12:30am ESE 17-20 kts 27.5°c 1010.1 hPa 79% 0.0mm
29/12:00am SE 17-19 kts 27.8°c 1010.3 hPa 80% 0.0mm
Time Wind Speed Temp Pressure Rel. Hum Rain
28/11:30pm ESE 17-19 kts 27.7°c 1010.5 hPa 79% 0.0mm
28/11:00pm ESE 17-20 kts 27.8°c 1010.8 hPa 80% 0.0mm
28/10:30pm ESE 18-20 kts 28.0°c 1010.9 hPa 80% 0.0mm
28/10:00pm ESE 17-19 kts 28.0°c 1011.0 hPa 80% 0.0mm
28/09:30pm ESE 18-21 kts 27.8°c 1011.0 hPa 79% 0.0mm
28/09:00pm ESE 19-21 kts 27.9°c 1010.9 hPa 79% 0.0mm
28/08:30pm ESE 16-19 kts 27.6°c 1010.5 hPa 83% 0.0mm
28/08:00pm ESE 19-23 kts 27.6°c 1010.0 hPa 82% 0.0mm
28/07:30pm ESE 19-22 kts 27.6°c 1009.9 hPa 82% 0.0mm
28/07:00pm ESE 18-21 kts 27.6°c 1009.6 hPa 81% 0.0mm
28/06:30pm SE 19-25 kts 27.8°c 1009.4 hPa 81% 0.0mm
28/06:00pm SE 19-23 kts 27.7°c 1009.1 hPa 80% 0.0mm
28/05:30pm SE 18-21 kts 27.6°c 1008.7 hPa 80% 0.0mm
28/05:00pm ESE 19-22 kts 28.0°c 1008.5 hPa 78% 0.0mm
28/04:30pm ESE 19-22 kts 28.2°c 1008.5 hPa 79% 0.0mm
28/04:00pm ESE 19-21 kts 28.3°c 1008.4 hPa 78% 0.0mm
28/03:30pm ESE 19-22 kts 28.6°c 1008.3 hPa 75% 0.0mm
28/03:00pm ESE 17-19 kts 29.2°c 1008.4 hPa 76% 0.0mm
28/02:30pm ESE 17-19 kts 28.9°c 1008.7 hPa 78% 0.0mm
28/02:00pm ESE 17-20 kts 28.7°c 1009.1 hPa 78% 0.0mm
28/01:30pm ESE 17-19 kts 28.7°c 1009.2 hPa 80% 0.0mm
28/01:00pm ESE 17-21 kts 29.0°c 1009.5 hPa 81% 0.0mm
28/12:30pm ESE 17-19 kts 28.9°c 1009.6 hPa 75% 0.0mm
28/12:00pm ESE 17-19 kts 29.1°c 1010.3 hPa 72% 0.0mm
28/11:30am ESE 18-21 kts 29.5°c 1010.6 hPa 72% 0.0mm
28/11:00am ESE 17-20 kts 29.3°c 1010.9 hPa 74% 0.0mm
28/10:30am ESE 20-22 kts 29.3°c 1011.0 hPa 72% 0.0mm
28/10:00am ESE 19-22 kts 29.1°c 1011.0 hPa 70% 0.0mm
28/09:30am ESE 19-22 kts 28.8°c 1011.0 hPa 74% 0.0mm
28/09:00am ESE 19-22 kts 28.7°c 1010.8 hPa 74% 0.0mm
28/08:30am ESE 18-21 kts 28.4°c 1010.6 hPa 76% 0.0mm
28/08:00am ESE 20-23 kts 28.4°c 1010.3 hPa 75% 0.0mm
28/07:30am ESE 20-23 kts 28.0°c 1010.0 hPa 79% 0.0mm
28/07:00am ESE 19-21 kts 27.7°c 1009.7 hPa 82% 0.0mm
28/06:30am ESE 21-23 kts 27.5°c 1009.5 hPa 78% 0.0mm
28/06:00am ESE 19-23 kts 27.6°c 1009.2 hPa 76% 0.0mm
28/05:30am ESE 21-23 kts 27.4°c 1009.0 hPa 78% 0.0mm
28/05:00am ESE 22-26 kts 27.2°c 1008.9 hPa 81% 0.0mm
28/04:30am ESE 19-21 kts 27.8°c 1008.9 hPa 81% 0.0mm
28/04:00am ESE 19-21 kts 27.6°c 1008.9 hPa 79% 0.0mm
28/03:30am ESE 17-20 kts 27.6°c 1008.9 hPa 78% 0.0mm
28/03:00am ESE 19-21 kts 27.7°c 1009.1 hPa 78% 0.0mm
28/02:30am ESE 18-21 kts 27.7°c 1009.3 hPa 80% 0.0mm
28/02:00am ESE 15-18 kts 27.4°c 1009.5 hPa 82% 0.0mm
28/01:30am SE 19-21 kts 27.7°c 1009.9 hPa 81% 0.0mm
28/01:00am SE 17-19 kts 27.5°c 1010.4 hPa 79% 0.0mm
28/12:30am SE 17-19 kts 27.5°c 1010.7 hPa 79% 0.0mm
28/12:00am SE 17-20 kts 27.5°c 1011.0 hPa 78% 0.0mm